| time (UTC) | temp F | wind direction | speed MPH | gust MPH | rain 1hr in | rain 24hr in | rain mn in | humidity % | barometer mb |
| 20260903133957 | 74 | 143 | 2.0 | 7.0 | 0.00 | 0.37 | 0.00 | 95 | 1018.0 |
| 20260903133200 | 74 | 234 | 1.0 | 5.0 | 0.00 | 0.37 | 0.00 | 95 | 1018.1 |
| 20260903132701 | 74 | 205 | 1.0 | 5.0 | 0.00 | 0.37 | 0.00 | 95 | 1018.0 |
| 20260903132201 | 74 | 234 | 1.0 | 3.0 | 0.00 | 0.37 | 0.00 | 95 | 1017.9 |
| 20260903131701 | 74 | 171 | 1.0 | 3.0 | 0.00 | 0.37 | 0.00 | 95 | 1018.2 |
| 20260903131201 | 74 | 171 | 1.0 | 4.0 | 0.00 | 0.37 | 0.00 | 95 | 1018.6 |
| 20260903130953 | 74 | 110 | 1.0 | 4.0 | 0.00 | 0.37 | 0.00 | 95 | 1018.8 |
| 20260903130203 | 74 | 11 | 1.0 | 3.0 | 0.00 | 0.37 | 0.00 | 95 | 1018.8 |
| 20260903125954 | 74 | 66 | 1.0 | 4.0 | 0.00 | 0.37 | 0.00 | 95 | 1019.1 |
| 20260903125201 | 74 | 125 | 1.0 | 4.0 | 0.00 | 0.37 | 0.00 | 96 | 1019.3 |
| 20260903124702 | 74 | 178 | 1.0 | 4.0 | 0.00 | 0.37 | 0.00 | 95 | 1019.2 |
| 20260903124204 | 73 | 279 | 1.0 | 3.0 | 0.00 | 0.37 | 0.00 | 95 | 1019.2 |
| 20260903123701 | 73 | 155 | 1.0 | 3.0 | 0.00 | 0.37 | 0.00 | 95 | 1019.3 |
| 20260903123456 | 73 | 162 | 1.0 | 3.0 | 0.00 | 0.37 | 0.00 | 95 | 1019.3 |
| 20260903122702 | 73 | 11 | 0.0 | 1.0 | 0.00 | 0.37 | 0.00 | 95 | 1019.3 |
| 20260903122200 | 73 | 89 | 0.0 | 3.0 | 0.00 | 0.37 | 0.00 | 95 | 1019.5 |
| 20260903121701 | 73 | 205 | 1.0 | 3.0 | 0.00 | 0.37 | 0.00 | 95 | 1019.6 |
| 20260903121201 | 73 | 326 | 1.0 | 4.0 | 0.00 | 0.37 | 0.00 | 95 | 1019.5 |
| 20260903120701 | 73 | 100 | 1.0 | 4.0 | 0.00 | 0.37 | 0.00 | 95 | 1019.6 |
| 20260903120201 | 73 | 353 | 1.0 | 3.0 | 0.00 | 0.37 | 0.00 | 95 | 1019.8 |
| 20260903115701 | 73 | 37 | 1.0 | 3.0 | 0.00 | 0.37 | 0.00 | 95 | 1019.8 |
| 20260903115201 | 73 | 326 | 1.0 | 5.0 | 0.00 | 0.37 | 0.00 | 95 | 1020.0 |
| 20260903114956 | 73 | 11 | 1.0 | 5.0 | 0.00 | 0.37 | 0.00 | 95 | 1019.8 |
| 20260903114202 | 73 | 205 | 1.0 | 3.0 | 0.00 | 0.37 | 0.00 | 95 | 1019.9 |
| 20260903113703 | 73 | 326 | 1.0 | 4.0 | 0.00 | 0.37 | 0.00 | 95 | 1019.9 |
| 20260903113202 | 73 | 16 | 1.0 | 4.0 | 0.00 | 0.37 | 0.00 | 95 | 1020.0 |
| 20260903112704 | 73 | 39 | 2.0 | 8.0 | 0.00 | 0.37 | 0.00 | 95 | 1020.0 |
| 20260903112202 | 73 | 11 | 2.0 | 8.0 | 0.00 | 0.37 | 0.00 | 95 | 1019.7 |
| 20260903111951 | 73 | 47 | 1.0 | 7.0 | 0.00 | 0.37 | 0.00 | 95 | 1019.5 |
| 20260903111203 | 72 | 11 | 1.0 | 7.0 | 0.00 | 0.37 | 0.00 | 95 | 1019.6 |
| 20260903110702 | 72 | 296 | 1.0 | 3.0 | 0.00 | 0.37 | 0.00 | 95 | 1019.0 |
| 20260903110202 | 72 | 28 | 0.0 | 1.0 | 0.00 | 0.37 | 0.00 | 95 | 1018.6 |
| 20260903105957 | 72 | 11 | 0.0 | 3.0 | 0.00 | 0.37 | 0.00 | 95 | 1018.5 |
| 20260903105202 | 72 | 326 | 0.0 | 3.0 | 0.00 | 0.37 | 0.00 | 95 | 1018.5 |
| 20260903104702 | 72 | 125 | 0.0 | 3.0 | 0.00 | 0.37 | 0.00 | 95 | 1018.6 |
| 20260903104204 | 72 | 143 | 0.0 | 1.0 | 0.00 | 0.37 | 0.00 | 95 | 1018.6 |
| 20260903103703 | 72 | 326 | 0.0 | 3.0 | 0.00 | 0.37 | 0.00 | 95 | 1018.4 |
| 20260903103202 | 72 | 326 | 0.0 | 3.0 | 0.00 | 0.37 | 0.00 | 95 | 1018.3 |
| 20260903102704 | 71 | 107 | 0.0 | 3.0 | 0.00 | 0.37 | 0.00 | 95 | 1018.1 |
| 20260903102202 | 71 | 353 | 0.0 | 3.0 | 0.00 | 0.37 | 0.00 | 94 | 1018.2 |
| 20260903101703 | 71 | 82 | 1.0 | 3.0 | 0.00 | 0.37 | 0.00 | 94 | 1018.1 |
| 20260903101458 | 71 | 0 | 0.0 | 3.0 | 0.00 | 0.37 | 0.00 | 94 | 1018.0 |
| 20260903100702 | 71 | 11 | 0.0 | 1.0 | 0.00 | 0.37 | 0.00 | 94 | 1017.8 |
| 20260903100202 | 71 | 326 | 0.0 | 1.0 | 0.00 | 0.37 | 0.00 | 94 | 1017.8 |
| 20260903095705 | 71 | 54 | 0.0 | 1.0 | 0.00 | 0.37 | 0.00 | 94 | 1017.8 |
| 20260903095203 | 71 | 260 | 0.0 | 1.0 | 0.00 | 0.37 | 0.00 | 94 | 1017.8 |
| 20260903094704 | 71 | 251 | 0.0 | 1.0 | 0.00 | 0.37 | 0.00 | 94 | 1017.8 |
| 20260903094202 | 71 | 11 | 0.0 | 1.0 | 0.00 | 0.37 | 0.00 | 94 | 1017.8 |
| 20260903093704 | 71 | 54 | 0.0 | 1.0 | 0.00 | 0.37 | 0.00 | 94 | 1017.8 |
| 20260903093203 | 71 | 260 | 0.0 | 1.0 | 0.00 | 0.37 | 0.00 | 94 | 1018.0 |
| 20260903092705 | 71 | 54 | 0.0 | 1.0 | 0.00 | 0.37 | 0.00 | 94 | 1018.0 |
| 20260903092458 | 71 | 54 | 0.0 | 1.0 | 0.00 | 0.37 | 0.00 | 94 | 1018.1 |
| 20260903091703 | 71 | 28 | 0.0 | 1.0 | 0.00 | 0.37 | 0.00 | 94 | 1018.0 |
| 20260903091202 | 71 | 28 | 0.0 | 1.0 | 0.00 | 0.37 | 0.00 | 94 | 1018.0 |
| 20260903090701 | 71 | 11 | 0.0 | 1.0 | 0.00 | 0.37 | 0.00 | 94 | 1018.0 |
| 20260903090200 | 71 | 54 | 0.0 | 1.0 | 0.00 | 0.37 | 0.00 | 94 | 1018.0 |
| 20260903085701 | 71 | 11 | 0.0 | 1.0 | 0.00 | 0.37 | 0.00 | 94 | 1018.0 |
| 20260903085201 | 71 | 28 | 0.0 | 1.0 | 0.00 | 0.37 | 0.00 | 94 | 1018.0 |
| 20260903084701 | 72 | 28 | 0.0 | 1.0 | 0.00 | 0.37 | 0.00 | 94 | 1017.9 |
| 20260903084201 | 72 | 54 | 1.0 | 3.0 | 0.00 | 0.37 | 0.00 | 94 | 1017.9 |
| 20260903083702 | 72 | 11 | 1.0 | 3.0 | 0.00 | 0.37 | 0.00 | 94 | 1017.9 |
| 20260903083339 | 72 | 11 | 0.0 | 1.0 | 0.00 | 0.37 | 0.00 | 94 | 1017.5 |
| 20260903083310 | 72 | 345 | 0.0 | 3.0 | 0.00 | 0.37 | 0.00 | 94 | 1017.8 |
| 20260903083033 | 72 | 353 | 0.0 | 1.0 | 0.00 | 0.37 | 0.00 | 94 | 1017.6 |
| 20260903081658 | 72 | 82 | 0.0 | 1.0 | 0.00 | 0.37 | 0.00 | 94 | 1017.5 |
| 20260903081158 | 72 | 28 | 0.0 | 4.0 | 0.00 | 0.37 | 0.00 | 94 | 1017.7 |
| 20260903080700 | 72 | 234 | 1.0 | 4.0 | 0.00 | 0.37 | 0.00 | 94 | 1017.6 |
| 20260903080200 | 72 | 326 | 0.0 | 3.0 | 0.00 | 0.37 | 0.00 | 94 | 1017.7 |
| 20260903075700 | 72 | 11 | 0.0 | 1.0 | 0.00 | 0.37 | 0.00 | 94 | 1017.8 |
| 20260903075158 | 72 | 100 | 0.0 | 1.0 | 0.00 | 0.37 | 0.00 | 94 | 1017.7 |
| 20260903074658 | 72 | 54 | 0.0 | 1.0 | 0.00 | 0.37 | 0.00 | 94 | 1017.8 |
| 20260903074452 | 71 | 234 | 0.0 | 3.0 | 0.00 | 0.37 | 0.00 | 94 | 1017.8 |
| 20260903073950 | 71 | 234 | 1.0 | 3.0 | 0.00 | 0.37 | 0.00 | 94 | 1017.7 |
| 20260903073156 | 71 | 234 | 0.0 | 3.0 | 0.00 | 0.37 | 0.00 | 94 | 1017.8 |
| 20260903072657 | 71 | 279 | 0.0 | 1.0 | 0.00 | 0.37 | 0.00 | 94 | 1017.7 |
| 20260903072152 | 71 | 260 | 0.0 | 1.0 | 0.00 | 0.37 | 0.00 | 94 | 1017.7 |
| 20260903071944 | 71 | 54 | 0.0 | 1.0 | 0.00 | 0.37 | 0.00 | 94 | 1017.7 |
| 20260903071154 | 71 | 11 | 0.0 | 1.0 | 0.00 | 0.37 | 0.00 | 94 | 1017.7 |
| 20260903070648 | 71 | 100 | 0.0 | 1.0 | 0.00 | 0.37 | 0.00 | 94 | 1017.8 |
| 20260903070149 | 71 | 11 | 0.0 | 1.0 | 0.00 | 0.37 | 0.00 | 94 | 1017.6 |
| 20260903065649 | 71 | 54 | 0.0 | 1.0 | 0.00 | 0.37 | 0.00 | 93 | 1017.7 |
| 20260903065149 | 71 | 54 | 0.0 | 1.0 | 0.00 | 0.37 | 0.00 | 93 | 1017.7 |
| 20260903064651 | 71 | 260 | 0.0 | 1.0 | 0.00 | 0.37 | 0.00 | 93 | 1017.7 |
| 20260903064151 | 71 | 100 | 0.0 | 1.0 | 0.00 | 0.37 | 0.00 | 93 | 1017.8 |
| 20260903063649 | 71 | 54 | 0.0 | 1.0 | 0.00 | 0.37 | 0.00 | 93 | 1017.9 |
| 20260903063441 | 71 | 11 | 0.0 | 1.0 | 0.00 | 0.37 | 0.00 | 93 | 1017.9 |
| 20260903062650 | 71 | 11 | 0.0 | 1.0 | 0.00 | 0.37 | 0.00 | 93 | 1017.9 |
| 20260903062146 | 71 | 100 | 0.0 | 1.0 | 0.00 | 0.37 | 0.00 | 93 | 1017.9 |
| 20260903061647 | 71 | 11 | 0.0 | 1.0 | 0.00 | 0.37 | 0.00 | 93 | 1017.9 |
| 20260903061146 | 71 | 100 | 0.0 | 1.0 | 0.00 | 0.37 | 0.00 | 93 | 1018.0 |
| 20260903060939 | 71 | 54 | 0.0 | 1.0 | 0.00 | 0.37 | 0.00 | 93 | 1018.0 |
| 20260903060146 | 71 | 54 | 0.0 | 1.0 | 0.00 | 0.37 | 0.00 | 93 | 1018.1 |
| 20260903055939 | 71 | 326 | 0.0 | 1.0 | 0.00 | 0.37 | 0.00 | 93 | 1018.1 |
| 20260903055145 | 71 | 54 | 0.0 | 1.0 | 0.00 | 0.37 | 0.00 | 93 | 1018.2 |
| 20260903054646 | 71 | 54 | 0.0 | 1.0 | 0.00 | 0.37 | 0.00 | 93 | 1018.4 |
| 20260903054147 | 71 | 353 | 0.0 | 1.0 | 0.00 | 0.37 | 0.00 | 93 | 1018.4 |
| 20260903053642 | 71 | 54 | 0.0 | 1.0 | 0.00 | 0.37 | 0.00 | 93 | 1018.2 |
| 20260903053142 | 71 | 54 | 0.0 | 1.0 | 0.00 | 0.37 | 0.00 | 93 | 1018.2 |
| 20260903052641 | 72 | 11 | 0.0 | 1.0 | 0.00 | 0.37 | 0.00 | 93 | 1018.2 |
| 20260903052140 | 72 | 326 | 0.0 | 1.0 | 0.00 | 0.37 | 0.00 | 93 | 1018.3 |
| 20260903051640 | 72 | 54 | 0.0 | 1.0 | 0.00 | 0.37 | 0.00 | 93 | 1018.1 |
| 20260903051140 | 72 | 234 | 0.0 | 1.0 | 0.00 | 0.37 | 0.00 | 93 | 1018.2 |
| 20260903050641 | 72 | 11 | 0.0 | 1.0 | 0.00 | 0.37 | 0.00 | 93 | 1018.1 |
| 20260903050143 | 72 | 54 | 0.0 | 3.0 | 0.00 | 0.37 | 0.00 | 93 | 1018.3 |
| 20260903045930 | 72 | 54 | 0.0 | 3.0 | 0.00 | 0.37 | 0.00 | 93 | 1018.3 |
| 20260903045137 | 72 | 143 | 0.0 | 1.0 | 0.00 | 0.37 | 0.00 | 93 | 1018.5 |
| 20260903044637 | 72 | 54 | 0.0 | 1.0 | 0.00 | 0.37 | 0.00 | 93 | 1018.5 |
| 20260903044133 | 72 | 54 | 0.0 | 1.0 | 0.00 | 0.37 | 0.00 | 93 | 1018.6 |
| 20260903043634 | 72 | 54 | 0.0 | 1.0 | 0.00 | 0.37 | 0.00 | 93 | 1018.7 |
| 20260903043132 | 72 | 11 | 0.0 | 1.0 | 0.00 | 0.37 | 0.00 | 93 | 1018.5 |
| 20260903042632 | 72 | 28 | 0.0 | 1.0 | 0.00 | 0.37 | 0.00 | 93 | 1018.7 |
| 20260903042132 | 72 | 37 | 0.0 | 1.0 | 0.00 | 0.37 | 0.00 | 93 | 1018.8 |
| 20260903041920 | 72 | 11 | 0.0 | 3.0 | 0.00 | 0.37 | 0.00 | 93 | 1018.8 |
| 20260903041132 | 72 | 37 | 0.0 | 3.0 | 0.00 | 0.37 | 0.00 | 93 | 1019.1 |
| 20260903040713 | 72 | 54 | 0.0 | 1.0 | 0.00 | 0.37 | 0.00 | 93 | 1019.1 |
| 20260903040700 | 72 | 41 | 0.0 | 1.0 | 0.00 | 0.37 | 0.00 | 93 | 1019.0 |
| 20260903035631 | 72 | 11 | 0.0 | 1.0 | 0.00 | 0.37 | 0.37 | 93 | 1019.0 |
| 20260903035130 | 72 | 11 | 0.0 | 1.0 | 0.00 | 0.37 | 0.37 | 93 | 1018.8 |
| 20260903034631 | 72 | 296 | 0.0 | 1.0 | 0.00 | 0.37 | 0.37 | 93 | 1018.9 |
| 20260903034130 | 72 | 11 | 0.0 | 1.0 | 0.00 | 0.37 | 0.37 | 93 | 1019.0 |
| 20260903033632 | 72 | 54 | 0.0 | 1.0 | 0.00 | 0.37 | 0.37 | 93 | 1019.0 |
| 20260903033423 | 73 | 326 | 0.0 | 1.0 | 0.00 | 0.37 | 0.37 | 93 | 1018.9 |
| 20260903032620 | 73 | 11 | 0.0 | 1.0 | 0.00 | 0.37 | 0.37 | 92 | 1018.9 |
| 20260903032113 | 73 | 171 | 0.0 | 1.0 | 0.00 | 0.37 | 0.37 | 92 | 1019.0 |
| 20260903031607 | 73 | 143 | 0.0 | 1.0 | 0.00 | 0.37 | 0.37 | 92 | 1019.0 |
| 20260903031109 | 73 | 11 | 0.0 | 1.0 | 0.00 | 0.37 | 0.37 | 92 | 1018.9 |
| 20260903030607 | 73 | 89 | 0.0 | 3.0 | 0.00 | 0.37 | 0.37 | 92 | 1018.8 |
| 20260903030108 | 73 | 234 | 0.0 | 3.0 | 0.00 | 0.37 | 0.37 | 93 | 1018.9 |
| 20260903025606 | 73 | 54 | 0.0 | 3.0 | 0.00 | 0.37 | 0.37 | 93 | 1018.8 |
| 20260903025102 | 73 | 143 | 0.0 | 3.0 | 0.00 | 0.37 | 0.37 | 93 | 1018.8 |
| 20260903024604 | 73 | 54 | 0.0 | 3.0 | 0.00 | 0.37 | 0.37 | 92 | 1018.8 |
| 20260903024102 | 73 | 353 | 0.0 | 1.0 | 0.00 | 0.37 | 0.37 | 92 | 1018.9 |
| 20260903023602 | 73 | 117 | 0.0 | 3.0 | 0.00 | 0.37 | 0.37 | 92 | 1018.9 |
| 20260903023101 | 73 | 11 | 0.0 | 3.0 | 0.00 | 0.37 | 0.37 | 92 | 1019.1 |
| 20260903022602 | 73 | 41 | 0.0 | 1.0 | 0.00 | 0.37 | 0.37 | 92 | 1019.0 |
| 20260903022103 | 73 | 54 | 0.0 | 1.0 | 0.00 | 0.37 | 0.37 | 92 | 1018.7 |
| 20260903021601 | 73 | 279 | 0.0 | 1.0 | 0.00 | 0.37 | 0.37 | 92 | 1018.7 |
| 20260903021104 | 73 | 100 | 0.0 | 1.0 | 0.00 | 0.37 | 0.37 | 92 | 1018.6 |
| 20260903020602 | 73 | 28 | 0.0 | 1.0 | 0.00 | 0.37 | 0.37 | 92 | 1018.5 |
| 20260903015703 | 73 | 279 | 0.0 | 1.0 | 0.00 | 0.37 | 0.37 | 92 | 1018.4 |
| 20260903015643 | 73 | 353 | 0.0 | 3.0 | 0.00 | 0.37 | 0.37 | 92 | 1018.4 |
| 20260903014858 | 73 | 11 | 0.0 | 3.0 | 0.00 | 0.37 | 0.37 | 92 | 1018.1 |
| 20260903014103 | 73 | 353 | 0.0 | 3.0 | 0.00 | 0.37 | 0.37 | 91 | 1018.4 |
| 20260903013851 | 74 | 188 | 0.0 | 3.0 | 0.00 | 0.37 | 0.37 | 92 | 1018.3 |
| 20260903013105 | 74 | 205 | 0.0 | 1.0 | 0.00 | 0.37 | 0.37 | 92 | 1018.3 |
| 20260903012602 | 74 | 54 | 0.0 | 1.0 | 0.00 | 0.37 | 0.37 | 92 | 1018.5 |
| 20260903012103 | 74 | 100 | 1.0 | 3.0 | 0.00 | 0.37 | 0.37 | 91 | 1018.6 |
| 20260903011851 | 74 | 143 | 1.0 | 3.0 | 0.00 | 0.37 | 0.37 | 91 | 1018.7 |
| 20260903011101 | 74 | 162 | 0.0 | 3.0 | 0.00 | 0.37 | 0.37 | 91 | 1018.6 |
| 20260903010602 | 74 | 100 | 0.0 | 1.0 | 0.00 | 0.37 | 0.37 | 91 | 1018.7 |
| 20260903005600 | 74 | 11 | 0.0 | 3.0 | 0.00 | 0.37 | 0.37 | 91 | 1018.7 |
| 20260903005358 | 74 | 11 | 1.0 | 3.0 | 0.00 | 0.37 | 0.37 | 91 | 1018.8 |
| 20260903004600 | 74 | 41 | 1.0 | 3.0 | 0.00 | 0.37 | 0.37 | 91 | 1018.9 |
| 20260903004103 | 74 | 248 | 1.0 | 3.0 | 0.00 | 0.37 | 0.37 | 91 | 1018.8 |
| 20260903003854 | 74 | 54 | 1.0 | 3.0 | 0.00 | 0.37 | 0.37 | 91 | 1018.7 |
| 20260903003102 | 74 | 11 | 0.0 | 3.0 | 0.00 | 0.37 | 0.37 | 91 | 1018.6 |
| 20260903002602 | 74 | 70 | 0.0 | 3.0 | 0.00 | 0.37 | 0.37 | 90 | 1018.5 |
| 20260903002057 | 75 | 82 | 0.0 | 3.0 | 0.00 | 0.37 | 0.37 | 90 | 1018.6 |
| 20260903001551 | 75 | 171 | 0.0 | 3.0 | 0.00 | 0.37 | 0.37 | 90 | 1018.6 |
| 20260903001045 | 75 | 11 | 0.0 | 1.0 | 0.00 | 0.37 | 0.37 | 90 | 1018.5 |
| 20260903000540 | 75 | 234 | 0.0 | 1.0 | 0.00 | 0.37 | 0.37 | 90 | 1018.5 |
| 20260903000032 | 75 | 11 | 0.0 | 1.0 | 0.00 | 0.37 | 0.37 | 90 | 1018.6 |
| 20260902235822 | 75 | 28 | 0.0 | 1.0 | 0.00 | 0.37 | 0.37 | 90 | 1018.5 |
| 20260902235030 | 75 | 143 | 0.0 | 1.0 | 0.00 | 0.37 | 0.37 | 90 | 1018.8 |
| 20260902234529 | 75 | 100 | 0.0 | 1.0 | 0.00 | 0.37 | 0.37 | 90 | 1018.8 |
| 20260902234030 | 76 | 326 | 0.0 | 1.0 | 0.00 | 0.37 | 0.37 | 90 | 1018.8 |
| 20260902233530 | 76 | 11 | 0.0 | 1.0 | 0.00 | 0.37 | 0.37 | 90 | 1018.7 |
| 20260902233031 | 76 | 54 | 0.0 | 3.0 | 0.00 | 0.37 | 0.37 | 90 | 1018.5 |
| 20260902232530 | 76 | 11 | 0.0 | 3.0 | 0.00 | 0.37 | 0.37 | 90 | 1018.6 |
| 20260902232030 | 76 | 54 | 1.0 | 3.0 | 0.00 | 0.37 | 0.37 | 90 | 1018.6 |
| 20260902231530 | 76 | 117 | 1.0 | 3.0 | 0.00 | 0.37 | 0.37 | 90 | 1018.9 |
| 20260902231028 | 76 | 205 | 0.0 | 3.0 | 0.00 | 0.37 | 0.37 | 90 | 1018.6 |
| 20260902230531 | 76 | 143 | 0.0 | 1.0 | 0.00 | 0.37 | 0.37 | 90 | 1018.6 |
| 20260902230029 | 76 | 11 | 0.0 | 1.0 | 0.00 | 0.37 | 0.37 | 90 | 1018.7 |
| 20260902225529 | 76 | 100 | 0.0 | 1.0 | 0.00 | 0.37 | 0.37 | 90 | 1018.9 |
| 20260902225029 | 76 | 11 | 0.0 | 1.0 | 0.00 | 0.37 | 0.37 | 90 | 1018.8 |
| 20260902224533 | 76 | 326 | 0.0 | 1.0 | 0.00 | 0.37 | 0.37 | 91 | 1018.9 |
| 20260902224030 | 76 | 326 | 0.0 | 1.0 | 0.00 | 0.37 | 0.37 | 91 | 1018.9 |
| 20260902223524 | 76 | 11 | 0.0 | 3.0 | 0.00 | 0.37 | 0.37 | 91 | 1019.0 |
| 20260902223314 | 76 | 143 | 1.0 | 3.0 | 0.00 | 0.37 | 0.37 | 91 | 1018.8 |
| 20260902222601 | 76 | 353 | 0.0 | 3.0 | 0.00 | 0.37 | 0.37 | 92 | 1018.9 |
| 20260902222543 | 76 | 54 | 0.0 | 3.0 | 0.00 | 0.37 | 0.37 | 91 | 1018.7 |
| 20260902221511 | 76 | 171 | 0.0 | 3.0 | 0.00 | 0.37 | 0.37 | 92 | 1018.8 |
| 20260902221302 | 76 | 11 | 0.0 | 3.0 | 0.00 | 0.37 | 0.37 | 92 | 1018.7 |
| 20260902220758 | 76 | 11 | 0.0 | 3.0 | 0.00 | 0.37 | 0.37 | 92 | 1018.8 |
| 20260902220011 | 76 | 100 | 0.0 | 1.0 | 0.00 | 0.37 | 0.37 | 93 | 1019.1 |
| 20260902215511 | 76 | 82 | 0.0 | 3.0 | 0.00 | 0.37 | 0.37 | 93 | 1019.2 |
| 20260902215009 | 76 | 54 | 1.0 | 4.0 | 0.00 | 0.37 | 0.37 | 92 | 1019.2 |
| 20260902214801 | 76 | 82 | 1.0 | 4.0 | 0.00 | 0.37 | 0.37 | 92 | 1019.4 |
| 20260902214011 | 76 | 268 | 0.0 | 4.0 | 0.00 | 0.37 | 0.37 | 93 | 1019.5 |
| 20260902213506 | 75 | 279 | 0.0 | 3.0 | 0.00 | 0.37 | 0.37 | 93 | 1019.5 |
| 20260902213007 | 75 | 353 | 0.0 | 1.0 | 0.00 | 0.37 | 0.37 | 93 | 1019.4 |
| 20260902212506 | 75 | 28 | 0.0 | 1.0 | 0.00 | 0.37 | 0.37 | 92 | 1019.4 |
| 20260902212006 | 74 | 143 | 0.0 | 1.0 | 0.00 | 0.37 | 0.37 | 92 | 1019.4 |
| 20260902211507 | 74 | 73 | 0.0 | 3.0 | 0.00 | 0.37 | 0.37 | 92 | 1019.3 |
| 20260902211007 | 74 | 69 | 0.0 | 3.0 | 0.00 | 0.37 | 0.37 | 92 | 1019.2 |
| 20260902210507 | 74 | 100 | 0.0 | 1.0 | 0.00 | 0.37 | 0.37 | 92 | 1019.3 |
| 20260902210008 | 74 | 116 | 0.0 | 1.0 | 0.00 | 0.37 | 0.37 | 92 | 1019.1 |
| 20260902205803 | 74 | 11 | 0.0 | 1.0 | 0.00 | 0.37 | 0.37 | 91 | 1019.1 |
| 20260902205001 | 74 | 143 | 0.0 | 1.0 | 0.00 | 0.37 | 0.37 | 91 | 1019.2 |
| 20260902204502 | 74 | 143 | 0.0 | 1.0 | 0.00 | 0.37 | 0.37 | 91 | 1019.2 |
| 20260902204002 | 74 | 82 | 0.0 | 1.0 | 0.00 | 0.37 | 0.37 | 91 | 1019.1 |
| 20260902203503 | 74 | 54 | 0.0 | 3.0 | 0.00 | 0.37 | 0.37 | 91 | 1019.1 |
| 20260902203003 | 74 | 326 | 0.0 | 3.0 | 0.00 | 0.37 | 0.37 | 90 | 1019.1 |
| 20260902202502 | 74 | 326 | 0.0 | 1.0 | 0.00 | 0.37 | 0.37 | 90 | 1019.0 |
| 20260902202002 | 74 | 188 | 0.0 | 1.0 | 0.00 | 0.37 | 0.37 | 90 | 1019.0 |
| 20260902201756 | 74 | 116 | 0.0 | 1.0 | 0.00 | 0.37 | 0.37 | 90 | 1019.1 |
| 20260902201003 | 74 | 11 | 0.0 | 1.0 | 0.00 | 0.37 | 0.37 | 90 | 1019.1 |
| 20260902200503 | 74 | 11 | 0.0 | 1.0 | 0.00 | 0.37 | 0.37 | 90 | 1019.4 |
| 20260902200004 | 74 | 28 | 0.0 | 1.0 | 0.00 | 0.37 | 0.37 | 90 | 1019.6 |
| 20260902195503 | 74 | 11 | 0.0 | 3.0 | 0.00 | 0.37 | 0.37 | 90 | 1019.7 |
| 20260902195002 | 74 | 326 | 1.0 | 3.0 | 0.00 | 0.37 | 0.37 | 89 | 1019.9 |
| 20260902194502 | 74 | 188 | 1.0 | 3.0 | 0.00 | 0.37 | 0.37 | 89 | 1019.8 |
| 20260902194002 | 75 | 125 | 1.0 | 3.0 | 0.00 | 0.37 | 0.37 | 89 | 1019.4 |
| 20260902193504 | 75 | 143 | 1.0 | 4.0 | 0.00 | 0.37 | 0.37 | 89 | 1019.4 |
| 20260902193001 | 75 | 158 | 1.0 | 4.0 | 0.00 | 0.37 | 0.37 | 89 | 1019.1 |
| 20260902192501 | 75 | 162 | 1.0 | 3.0 | 0.00 | 0.37 | 0.37 | 88 | 1018.7 |
| 20260902192002 | 75 | 89 | 1.0 | 3.0 | 0.00 | 0.37 | 0.37 | 88 | 1018.6 |
| 20260902191803 | 75 | 210 | 1.0 | 3.0 | 0.01 | 0.37 | 0.37 | 88 | 1018.9 |
| 20260902191002 | 75 | 143 | 0.0 | 3.0 | 0.05 | 0.37 | 0.37 | 87 | 1018.9 |
| 20260902190501 | 76 | 188 | 0.0 | 1.0 | 0.18 | 0.37 | 0.37 | 87 | 1018.9 |
| 20260902190002 | 76 | 11 | 0.0 | 1.0 | 0.35 | 0.37 | 0.37 | 87 | 1019.0 |
| 20260902185601 | 76 | 188 | 0.0 | 3.0 | 0.37 | 0.37 | 0.37 | 86 | 1019.5 |
| 20260902185542 | 76 | 279 | 0.0 | 3.0 | 0.37 | 0.37 | 0.37 | 86 | 1019.3 |
| 20260902184501 | 76 | 205 | 0.0 | 1.0 | 0.37 | 0.37 | 0.37 | 85 | 1019.5 |
| 20260902184001 | 76 | 54 | 0.0 | 3.0 | 0.37 | 0.37 | 0.37 | 85 | 1019.7 |
| 20260902183504 | 76 | 188 | 1.0 | 4.0 | 0.37 | 0.37 | 0.37 | 85 | 1020.0 |
| 20260902183003 | 77 | 132 | 1.0 | 4.0 | 0.37 | 0.37 | 0.37 | 84 | 1020.2 |
| 20260902182502 | 77 | 345 | 1.0 | 4.0 | 0.37 | 0.37 | 0.37 | 82 | 1020.3 |
| 20260902182001 | 77 | 135 | 1.0 | 4.0 | 0.37 | 0.37 | 0.37 | 81 | 1020.5 |
| 20260902181502 | 78 | 28 | 1.0 | 4.0 | 0.36 | 0.36 | 0.36 | 79 | 1020.7 |
| 20260902181001 | 78 | 316 | 2.0 | 11.0 | 0.32 | 0.32 | 0.30 | 77 | 1021.4 |
| 20260902180501 | 80 | 54 | 3.0 | 11.0 | 0.19 | 0.19 | 0.16 | 75 | 1021.2 |
| 20260902175959 | 82 | 357 | 3.0 | 9.0 | 0.02 | 0.02 | 0.01 | 70 | 1021.4 |
| 20260902175500 | 83 | 306 | 3.0 | 11.0 | 0.00 | 0.00 | 0.00 | 65 | 1021.3 |
| 20260902174959 | 85 | 348 | 5.0 | 16.0 | 0.00 | 0.00 | 0.00 | 62 | 1021.1 |
| 20260902174501 | 87 | 27 | 4.0 | 16.0 | 0.00 | 0.00 | 0.00 | 59 | 1021.0 |
| 20260902174000 | 91 | 83 | 2.0 | 14.0 | 0.00 | 0.00 | 0.00 | 61 | 1020.6 |
| 20260902173457 | 93 | 35 | 2.0 | 4.0 | 0.00 | 0.00 | 0.00 | 58 | 1020.5 |
| 20260902173251 | 93 | 11 | 1.0 | 4.0 | 0.00 | 0.00 | 0.00 | 56 | 1020.5 |
| 20260902172457 | 93 | 11 | 1.0 | 4.0 | 0.00 | 0.00 | 0.00 | 58 | 1020.3 |
| 20260902171955 | 93 | 54 | 1.0 | 4.0 | 0.00 | 0.00 | 0.00 | 58 | 1020.2 |
| 20260902171456 | 93 | 21 | 2.0 | 4.0 | 0.00 | 0.00 | 0.00 | 58 | 1020.1 |
| 20260902170955 | 92 | 260 | 2.0 | 5.0 | 0.00 | 0.00 | 0.00 | 57 | 1020.1 |
| 20260902170453 | 93 | 263 | 1.0 | 5.0 | 0.00 | 0.00 | 0.00 | 56 | 1020.1 |
| 20260902165955 | 93 | 326 | 1.0 | 4.0 | 0.00 | 0.00 | 0.00 | 57 | 1020.0 |
| 20260902165455 | 92 | 28 | 1.0 | 4.0 | 0.00 | 0.00 | 0.00 | 57 | 1019.9 |
| 20260902165253 | 92 | 143 | 1.0 | 4.0 | 0.00 | 0.00 | 0.00 | 58 | 1019.8 |
| 20260902164542 | 92 | 21 | 1.0 | 3.0 | 0.00 | 0.00 | 0.00 | 58 | 1019.8 |
| 20260902164522 | 92 | 54 | 1.0 | 4.0 | 0.00 | 0.00 | 0.00 | 58 | 1019.8 |
| 20260902163437 | 92 | 353 | 1.0 | 3.0 | 0.00 | 0.00 | 0.00 | 58 | 1019.7 |
| 20260902162939 | 92 | 11 | 1.0 | 3.0 | 0.00 | 0.00 | 0.00 | 59 | 1019.7 |
| 20260902162438 | 92 | 54 | 0.0 | 3.0 | 0.00 | 0.00 | 0.00 | 60 | 1019.7 |
| 20260902162234 | 91 | 54 | 1.0 | 3.0 | 0.00 | 0.00 | 0.00 | 60 | 1019.7 |
| 20260902161436 | 91 | 296 | 1.0 | 3.0 | 0.00 | 0.00 | 0.00 | 62 | 1019.7 |
| 20260902160936 | 90 | 41 | 1.0 | 4.0 | 0.00 | 0.00 | 0.00 | 62 | 1019.7 |
| 20260902160724 | 90 | 100 | 1.0 | 4.0 | 0.00 | 0.00 | 0.00 | 62 | 1019.5 |
| 20260902155933 | 89 | 296 | 1.0 | 4.0 | 0.00 | 0.00 | 0.00 | 62 | 1019.5 |
| 20260902155535 | 89 | 70 | 1.0 | 4.0 | 0.00 | 0.00 | 0.00 | 64 | 1019.5 |
| 20260902155514 | 89 | 18 | 1.0 | 4.0 | 0.00 | 0.00 | 0.00 | 62 | 1019.5 |
| 20260902154724 | 88 | 54 | 1.0 | 4.0 | 0.00 | 0.00 | 0.00 | 65 | 1019.4 |
| 20260902153931 | 87 | 11 | 1.0 | 4.0 | 0.00 | 0.00 | 0.00 | 66 | 1019.5 |
| 20260902153432 | 86 | 54 | 1.0 | 4.0 | 0.00 | 0.00 | 0.00 | 67 | 1019.4 |
| 20260902152931 | 86 | 28 | 1.0 | 4.0 | 0.00 | 0.00 | 0.00 | 70 | 1019.5 |
| 20260902152432 | 85 | 194 | 1.0 | 5.0 | 0.00 | 0.00 | 0.00 | 69 | 1019.5 |
| 20260902151932 | 85 | 54 | 1.0 | 5.0 | 0.00 | 0.00 | 0.00 | 72 | 1019.6 |
| 20260902151431 | 84 | 143 | 1.0 | 4.0 | 0.00 | 0.00 | 0.00 | 72 | 1019.6 |
| 20260902150930 | 83 | 54 | 1.0 | 5.0 | 0.00 | 0.00 | 0.00 | 73 | 1019.4 |
| 20260902150428 | 83 | 11 | 2.0 | 5.0 | 0.00 | 0.00 | 0.00 | 73 | 1019.3 |
| 20260902145926 | 83 | 63 | 1.0 | 4.0 | 0.00 | 0.00 | 0.00 | 74 | 1019.4 |
| 20260902145423 | 82 | 69 | 1.0 | 3.0 | 0.00 | 0.00 | 0.00 | 74 | 1019.4 |
| 20260902144923 | 82 | 345 | 1.0 | 4.0 | 0.00 | 0.00 | 0.00 | 75 | 1019.4 |
| 20260902144423 | 82 | 125 | 1.0 | 4.0 | 0.00 | 0.00 | 0.00 | 75 | 1019.3 |
| 20260902143923 | 81 | 41 | 1.0 | 4.0 | 0.00 | 0.00 | 0.00 | 76 | 1019.4 |
| 20260902143717 | 81 | 37 | 1.0 | 4.0 | 0.00 | 0.00 | 0.00 | 77 | 1019.3 |
| 20260902142923 | 81 | 86 | 1.0 | 3.0 | 0.00 | 0.00 | 0.00 | 78 | 1019.3 |
| 20260902142424 | 80 | 11 | 1.0 | 3.0 | 0.00 | 0.00 | 0.00 | 78 | 1019.5 |
| 20260902141924 | 80 | 54 | 1.0 | 4.0 | 0.00 | 0.00 | 0.00 | 79 | 1019.5 |
| 20260902141423 | 80 | 54 | 1.0 | 4.0 | 0.00 | 0.00 | 0.00 | 80 | 1019.5 |
| 20260902140924 | 79 | 82 | 1.0 | 4.0 | 0.00 | 0.00 | 0.00 | 81 | 1019.6 |
| 20260902140424 | 79 | 44 | 1.0 | 4.0 | 0.00 | 0.00 | 0.00 | 83 | 1019.6 |
| 20260902135923 | 78 | 234 | 1.0 | 3.0 | 0.00 | 0.00 | 0.00 | 84 | 1019.5 |
| 20260902135659 | 78 | 37 | 1.0 | 3.0 | 0.00 | 0.00 | 0.00 | 85 | 1019.5 |
| 20260902134923 | 78 | 234 | 1.0 | 3.0 | 0.00 | 0.00 | 0.00 | 86 | 1019.5 |
| 20260902134423 | 77 | 198 | 1.0 | 3.0 | 0.00 | 0.00 | 0.00 | 86 | 1019.4 |